Tracking 23726 objects as of 23-Sep-2021
HD Live streaming from Space Station
objects crossing your sky now

STARLINK-1144

Track STARLINK-1144 now!
10-day predictions
STARLINK-1144 is classified as:


NORAD ID: 44933
Int'l Code: 2020-001V
Perigee: 552.9 km
Apogee: 555.8 km
Inclination: 53.1 °
Period: 95.6 minutes
Semi major axis: 6925 km
RCS: Unknown
Launch date: January 7, 2020
Source: United States (US)
Launch site: AIR FORCE EASTERN TEST RANGE (AFETR)
aabbcc
Your satellite tracking list
Your tracking list is empty




NASA's NSSDC Master Catalog

Two Line Element Set (TLE):
1 44933U 20001V   21265.25808118  .00000667  00000-0  63715-4 0  9990
2 44933  53.0544 101.4269 0002042  83.6070 276.5152 15.06398143 95542
Source of the keplerian elements: AFSPC